EW1970 Weather Reports


time (UTC)temp
C
wind
direction
speed
KPH
gust
KPH
rain 1hr
cm
rain 24hr
cm
rain mn
cm
humidity
%
barometer
mb
20260507154508 14 59 0.0 12.9 0.00 0.00 0.00 81 1019.8
20260507153015 14 73 1.6 6.4 0.00 0.00 0.00 82 1019.3
20260507151534 14 19 1.6 6.4 0.00 0.00 0.00 83 1020.2
20260507150024 14 73 0.0 6.4 0.00 0.00 0.00 84 1019.7
20260507144506 14 57 1.6 6.4 0.00 0.00 0.00 85 1019.8
20260507143023 14 360 1.6 6.4 0.00 0.00 0.00 86 1019.3
20260507141518 14 292 1.6 12.9 0.00 0.00 0.00 87 1019.3
20260507140022 14 169 0.0 16.1 0.00 0.00 0.00 87 1019.1
20260507134535 14 352 1.6 14.5 0.00 0.00 0.00 88 1018.7
20260507133011 14 311 1.6 14.5 0.00 0.00 0.00 88 1018.9
20260507131521 13 338 1.6 17.7 0.00 0.00 0.00 89 1018.8
20260507130029 13 334 1.6 17.7 0.00 0.00 0.00 89 1018.9
20260507124525 13 346 0.0 16.1 0.00 0.00 0.00 89 1018.7
20260507123028 13 313 1.6 12.9 0.00 0.00 0.00 88 1018.7
20260507121512 14 360 1.6 17.7 0.00 0.00 0.00 89 1018.5
20260507120017 14 42 1.6 6.4 0.00 0.00 0.00 88 1017.7
20260507114529 14 9 3.2 16.1 0.00 0.00 0.00 88 1017.7
20260507113026 14 360 1.6 8.0 0.00 0.00 0.00 88 1017.7
20260507111528 14 48 1.6 12.9 0.00 0.00 0.00 88 1017.9
20260507110017 14 20 1.6 12.9 0.00 0.00 0.00 88 1017.7
20260507104506 14 127 3.2 17.7 0.00 0.00 0.00 88 1017.9
20260507103005 14 272 1.6 12.9 0.00 0.00 0.00 88 1016.8
20260507101517 14 92 1.6 14.5 0.00 0.00 0.00 87 1017.3
20260507100015 14 113 0.0 9.7 0.00 0.00 0.00 88 1017.1
20260507094522 14 98 0.0 11.3 0.00 0.00 0.00 87 1017.7
20260507093004 14 51 0.0 4.8 0.00 0.00 0.00 87 1017.2
20260507091506 14 348 1.6 6.4 0.00 0.00 0.00 87 1017.4
20260507090012 14 96 1.6 9.7 0.00 0.00 0.00 87 1016.7
20260507084529 14 114 0.0 3.2 0.00 0.00 0.00 86 1016.3
20260507083020 14 54 0.0 12.9 0.00 0.00 0.00 86 1016.2
20260507081525 14 238 0.0 3.2 0.00 0.00 0.00 86 1016.6
20260507080011 15 311 0.0 3.2 0.00 0.00 0.00 86 1016.1
20260507074526 15 79 0.0 3.2 0.00 0.00 0.00 85 1015.8
20260507073020 15 166 1.6 8.0 0.00 0.00 0.00 85 1016.0
20260507071525 15 77 0.0 4.8 0.00 0.00 0.00 85 1015.9
20260507070010 15 133 0.0 6.4 0.00 0.00 0.00 84 1015.9
20260507064513 15 89 0.0 6.4 0.00 0.00 0.00 84 1015.7
20260507063017 15 117 0.0 4.8 0.00 0.00 0.00 83 1015.9
20260507061520 15 104 0.0 3.2 0.00 0.00 0.00 83 1015.7
20260507060023 15 74 0.0 3.2 0.00 0.00 0.00 83 1016.3
20260507054511 15 100 1.6 9.7 0.00 0.00 0.00 82 1015.7
20260507053016 15 278 1.6 8.0 0.00 0.00 0.00 82 1015.5
20260507051531 15 5 0.0 9.7 0.00 0.00 0.00 82 1015.5
20260507050024 16 326 0.0 6.4 0.00 0.00 0.00 82 1016.0
20260507044527 16 114 1.6 9.7 0.00 0.00 0.00 82 1015.9
20260507043012 16 61 0.0 14.5 0.00 0.00 0.00 82 1015.9
20260507041518 16 309 1.6 12.9 0.00 0.00 0.00 82 1015.8
20260507040002 16 28 1.6 9.7 0.00 0.00 0.00 83 1015.9
20260507034508 16 42 1.6 9.7 0.00 0.00 0.00 83 1015.7
20260507033011 16 342 0.0 4.8 0.00 0.00 0.00 84 1015.5
20260507031505 16 333 0.0 4.8 0.00 0.00 0.00 84 1015.6
20260507030004 16 187 1.6 12.9 0.00 0.00 0.00 83 1015.3
20260507024504 16 318 1.6 11.3 0.00 0.00 0.00 83 1015.5
20260507023008 16 16 1.6 6.4 0.00 0.00 0.00 83 1015.2
20260507021511 16 351 1.6 16.1 0.00 0.00 0.00 83 1014.8
20260507020003 16 352 0.0 8.0 0.00 0.00 0.00 83 1014.8
20260507014505 16 46 0.0 8.0 0.00 0.00 0.00 83 1014.4
20260507013004 16 352 0.0 12.9 0.00 0.00 0.00 83 1014.0
20260507011512 16 49 0.0 8.0 0.00 0.00 0.00 83 1013.8
20260507010029 16 348 1.6 14.5 0.00 0.00 0.00 83 1013.8
20260507004503 16 323 0.0 6.4 0.00 0.00 0.00 83 1013.4
20260507003011 16 291 3.2 9.7 0.00 0.00 0.00 82 1013.1
20260507001508 16 11 3.2 12.9 0.00 0.00 0.00 82 1013.5
20260507000014 16 302 3.2 12.9 0.00 0.00 0.00 83 1013.0
20260506234520 16 30 1.6 9.7 0.00 0.00 0.00 83 1013.3
20260506233004 16 23 1.6 11.3 0.00 0.00 0.00 83 1013.1
20260506231506 16 352 0.0 4.8 0.00 0.00 0.00 82 1013.0
20260506230014 16 348 1.6 12.9 0.00 0.00 0.00 82 1012.8
20260506224522 16 292 1.6 8.0 0.00 0.00 0.00 83 1013.0
20260506223028 16 103 3.2 11.3 0.00 0.00 0.00 83 1012.8
20260506221506 16 336 1.6 16.1 0.00 0.00 0.00 83 1012.9
20260506220008 16 352 0.0 14.5 0.00 0.00 0.00 82 1012.9
20260506214517 17 55 1.6 14.5 0.00 0.00 0.00 81 1012.8
20260506213019 16 71 1.6 12.9 0.00 0.00 0.00 81 1012.8
20260506211524 17 351 3.2 17.7 0.00 0.00 0.00 80 1012.9
20260506210027 16 284 4.8 16.1 0.00 0.00 0.00 80 1013.1
20260506204510 17 275 3.2 16.1 0.00 0.00 0.00 80 1013.4
20260506203016 17 82 3.2 12.9 0.00 0.00 0.00 79 1013.2
20260506201525 17 29 4.8 19.3 0.00 0.00 0.00 79 1013.1
20260506200029 18 100 3.2 14.5 0.00 0.00 0.00 78 1012.8
20260506194509 18 296 4.8 19.3 0.00 0.00 0.00 79 1012.8
20260506193016 20 319 4.8 16.1 0.00 0.00 0.00 78 1012.6
20260506191518 20 82 4.8 17.7 0.00 0.00 0.00 78 1012.8
20260506190024 21 352 1.6 14.5 0.00 0.00 0.00 78 1012.9
20260506184527 22 325 6.4 17.7 0.00 0.00 0.00 76 1012.5
20260506183014 22 26 4.8 12.9 0.00 0.00 0.00 73 1012.5
20260506181518 22 269 3.2 12.9 0.00 0.00 0.00 77 1012.5
20260506180032 21 167 1.6 8.0 0.00 0.00 0.00 78 1012.4
20260506174525 21 80 1.6 6.4 0.00 0.00 0.00 81 1012.3
20260506173026 20 334 1.6 9.7 0.00 0.00 0.00 82 1012.3
20260506171520 19 5 0.0 9.7 0.00 0.00 0.00 84 1012.3
20260506170020 18 74 1.6 6.4 0.00 0.00 0.00 85 1012.5
20260506164525 17 360 0.0 11.3 0.00 0.00 0.00 88 1012.5
20260506163028 17 49 1.6 6.4 0.00 0.00 0.00 90 1013.2
20260506161528 16 182 1.6 12.9 0.00 0.00 0.00 91 1013.5
20260506160018 16 252 1.6 19.3 0.00 0.00 0.00 90 1014.4